H1 CPF 2 NER 2024 10 5 9 279 01 glonass145 H2 2213001 9145 54031 2024 10 5 0 0 0 2024 10 8 23 45 0 900 1 1 0 0 0 1 H9 10 0 60588 0.00000 0 -16285887.030 850862.581 -19594797.100 10 0 60588 900.00000 0 -14308640.149 -701885.740 -21088998.419 10 0 60588 1800.00000 0 -12334739.580 -2503668.959 -22172987.705 10 0 60588 2700.00000 0 -10424838.465 -4522730.036 -22825774.322 10 0 60588 3600.00000 0 -8633717.120 -6716446.844 -23034767.772 10 0 60588 4500.00000 0 -7008125.292 -9032896.265 -22796014.531 10 0 60588 5400.00000 0 -5584980.062 -11412818.069 -22114266.332 10 0 60588 6300.00000 0 -4389993.531 -13791896.899 -21002879.265 10 0 60588 7200.00000 0 -3436786.183 -16103267.488 -19483546.302 10 0 60588 8100.00000 0 -2726521.313 -18280139.049 -17585868.892 10 0 60588 9000.00000 0 -2248074.035 -20258429.909 -15346776.288 10 0 60588 9900.00000 0 -1978725.974 -21979303.055 -12809804.081 10 0 60588 10800.00000 0 -1885354.851 -23391497.476 -10024246.036 10 0 60588 11700.00000 0 -1926067.445 -24453358.657 -7044195.686 10 0 60588 12600.00000 0 -2052206.011 -25134484.176 -3927496.307 10 0 60588 13500.00000 0 -2210642.649 -25416916.350 -734619.598 10 0 60588 14400.00000 0 -2346264.177 -25295832.796 2472505.250 10 0 60588 15300.00000 0 -2404542.202 -24779706.681 5631689.390 10 0 60588 16200.00000 0 -2334079.599 -23889930.562 8681685.977 10 0 60588 17100.00000 0 -2089025.775 -22659919.980 11563372.541 10 0 60588 18000.00000 0 -1631258.625 -21133734.620 14220891.408 10 0 60588 18900.00000 0 -932240.997 -19364274.760 16602726.481 10 0 60588 19800.00000 0 25526.923 -17411128.259 18662696.059 10 0 60588 20700.00000 0 1247520.989 -15338157.620 20360842.997 10 0 60588 21600.00000 0 2726714.574 -13210927.291 21664205.612 10 0 60588 22500.00000 0 4443629.430 -11094077.703 22547454.965 10 0 60588 23400.00000 0 6366915.265 -9048754.726 22993386.586 10 0 60588 24300.00000 0 8454435.539 -7130200.710 22993257.383 10 0 60588 25200.00000 0 10654816.010 -5385606.640 22546961.146 10 0 60588 26100.00000 0 12909393.271 -3852314.186 21663038.922 10 0 60588 27000.00000 0 15154483.821 -2556441.970 20358523.445 10 0 60588 27900.00000 0 17323880.591 -1511992.959 18658619.743 10 0 60588 28800.00000 0 19351473.997 -720479.995 16596227.079 10 0 60588 29700.00000 0 21173888.890 -171084.935 14211310.410 10 0 60588 30600.00000 0 22733027.616 158655.409 11550132.466 10 0 60588 31500.00000 0 23978412.667 301665.512 8664360.551 10 0 60588 32400.00000 0 24869230.365 299699.674 5610064.808 10 0 60588 33300.00000 0 25375989.149 201332.113 2446627.195 10 0 60588 34200.00000 0 25481721.926 59654.185 -764417.427 10 0 60588 35100.00000 0 25182681.110 -70222.933 -3960585.028 10 0 60588 36000.00000 0 24488496.344 -133753.226 -7079666.719 10 0 60588 36900.00000 0 23421787.754 -79517.667 -10060948.751 10 0 60588 37800.00000 0 22017250.776 138347.090 -12846403.360 10 0 60588 38700.00000 0 20320251.123 557957.458 -15381826.247 10 0 60588 39600.00000 0 18384989.304 1207823.231 -17617897.620 10 0 60588 40500.00000 0 16272312.306 2105399.339 -19511145.576 10 0 60588 41400.00000 0 14047264.843 3256111.270 -21024792.757 10 0 60588 42300.00000 0 11776483.337 4652896.103 -22129469.839 10 0 60588 43200.00000 0 9525542.083 6276279.110 -22803782.277 10 0 60588 44100.00000 0 7356362.613 8094983.244 -23034719.874 10 0 60588 45000.00000 0 5324794.216 10067046.265 -22817901.871 10 0 60588 45900.00000 0 3478465.934 12141399.001 -22157653.572 10 0 60588 46800.00000 0 1854998.609 14259838.947 -21066913.729 10 0 60588 47700.00000 0 480650.179 16359316.961 -19566975.103 10 0 60588 48600.00000 0 -630550.866 18374441.758 -17687063.753 10 0 60588 49500.00000 0 -1477149.584 20240097.971 -15463765.533 10 0 60588 50400.00000 0 -2070073.723 21894068.787 -12940311.170 10 0 60588 51300.00000 0 -2431917.842 23279554.009 -10165733.873 10 0 60588 52200.00000 0 -2595734.198 24347478.832 -7193915.872 10 0 60588 53100.00000 0 -2603382.771 25058497.246 -4082542.359 10 0 60588 54000.00000 0 -2503511.122 25384606.810 -891983.133 10 0 60588 54900.00000 0 -2349250.198 25310307.690 2315876.440 10 0 60588 55800.00000 0 -2195723.954 24833257.915 5478832.496 10 0 60588 56700.00000 0 -2097478.298 23964397.767 8535564.662 10 0 60588 57600.00000 0 -2105938.134 22727538.379 11426819.895 10 0 60588 58500.00000 0 -2266999.938 21158431.839 14096555.432 10 0 60588 59400.00000 0 -2618861.508 19303361.609 16493019.154 10 0 60588 60300.00000 0 -3190180.529 17217311.852 18569746.924 10 0 60588 61200.00000 0 -3998639.809 14961791.603 20286458.154 10 0 60588 62100.00000 0 -5049980.104 12602403.826 21609832.871 10 0 60588 63000.00000 0 -6337542.004 10206259.747 22514155.813 10 0 60588 63900.00000 0 -7842337.278 7839345.207 22981815.491 10 0 60588 64800.00000 0 -9533648.112 5563947.558 23003648.817 10 0 60588 65700.00000 0 -11370130.895 3436249.150 22579124.596 10 0 60588 66600.00000 0 -13301380.115 1504186.634 21716362.000 10 0 60588 67500.00000 0 -15269888.837 -194335.591 20431983.075 10 0 60588 68400.00000 0 -17213325.443 -1632804.012 18750801.265 10 0 60588 69300.00000 0 -19067032.838 -2796970.456 16705350.973 10 0 60588 70200.00000 0 -20766646.578 -3685206.204 14335266.172 10 0 60588 71100.00000 0 -22250722.890 -4308321.179 11686519.066 10 0 60588 72000.00000 0 -23463266.510 -4688856.044 8810532.732 10 0 60588 72900.00000 0 -24356051.984 -4859877.287 5763184.357 10 0 60588 73800.00000 0 -24890640.197 -4863326.491 2603718.210 10 0 60588 74700.00000 0 -25040004.408 -4747994.080 -606410.370 10 0 60588 75600.00000 0 -24789696.322 -4567204.036 -3804736.966 10 0 60588 76500.00000 0 -24138502.044 -4376308.614 -6929011.891 10 0 60588 77400.00000 0 -23098559.429 -4230100.367 -9918420.902 10 0 60588 78300.00000 0 -21694931.244 -4180252.487 -12714778.009 10 0 60588 79200.00000 0 -19964651.745 -4272897.241 -15263666.078 10 0 60588 80100.00000 0 -17955286.708 -4546446.339 -17515502.135 10 0 60588 81000.00000 0 -15723067.588 -5029746.682 -19426506.005 10 0 60588 81900.00000 0 -13330678.366 -5740650.350 -20959553.141 10 0 60588 82800.00000 0 -10844788.216 -6685060.048 -22084895.034 10 0 60588 83700.00000 0 -8333433.453 -7856490.757 -22780733.527 10 0 60588 84600.00000 0 -5863358.233 -9236166.446 -23033638.380 10 0 60588 85500.00000 0 -3497424.796 -10793648.022 -22838800.680 10 0 60589 0.00000 0 -1292200.897 -12487966.138 -22200117.948 10 0 60589 900.00000 0 704177.109 -14269212.412 -21130109.634 10 0 60589 1800.00000 0 2453774.785 -16080520.189 -19649666.167 10 0 60589 2700.00000 0 3930195.430 -17860355.062 -17787635.826 10 0 60589 3600.00000 0 5119424.292 -19545017.234 -15580258.530 10 0 60589 4500.00000 0 6020149.052 -21071252.082 -13070457.523 10 0 60589 5400.00000 0 6643544.973 -22378859.790 -10307002.829 10 0 60589 6300.00000 0 7012535.634 -23413195.110 -7343562.754 10 0 60589 7200.00000 0 7160562.036 -24127452.881 -4237661.857 10 0 60589 8100.00000 0 7129913.330 -24484643.883 -1049565.573 10 0 60589 9000.00000 0 6969690.671 -24459178.566 2158886.914 10 0 60589 9900.00000 0 6733490.904 -24037992.510 5325478.945 10 0 60589 10800.00000 0 6476908.385 -23221166.678 8388818.715 10 0 60589 11700.00000 0 6254960.679 -22022016.509 11289524.541 10 0 60589 12600.00000 0 6119546.906 -20466646.082 13971370.351 10 0 60589 13500.00000 0 6117045.956 -18592985.724 16382369.587 10 0 60589 14400.00000 0 6286155.819 -16449352.823 18475777.049 10 0 60589 15300.00000 0 6656065.137 -14092595.292 20210989.837 10 0 60589 16200.00000 0 7245034.107 -11585894.205 21554330.557 10 0 60589 17100.00000 0 8059444.915 -8996316.137 22479698.217 10 0 60589 18000.00000 0 9093362.303 -6392215.904 22969074.623 10 0 60589 18900.00000 0 10328623.791 -3840596.532 23012876.742 10 0 60589 19800.00000 0 11735457.106 -1404534.988 22610148.201 10 0 60589 20700.00000 0 13273600.484 859220.376 21768585.886 10 0 60589 21600.00000 0 14893880.563 2902381.755 20504400.559 10 0 60589 22500.00000 0 16540183.397 4686895.243 18842013.313 10 0 60589 23400.00000 0 18151737.423 6186282.309 16813592.755 10 0 60589 24300.00000 0 19665613.844 7386493.855 14458440.774 10 0 60589 25200.00000 0 21019340.274 8286241.487 11822237.757 10 0 60589 26100.00000 0 22153518.167 8896792.356 8956161.043 10 0 60589 27000.00000 0 23014333.868 9241236.509 5915893.126 10 0 60589 27900.00000 0 23555857.029 9353257.954 2760538.602 10 0 60589 28800.00000 0 23742028.688 9275461.794 -448528.921 10 0 60589 29700.00000 0 23548254.097 9057328.816 -3648867.039 10 0 60589 30600.00000 0 22962531.956 8752884.976 -6778187.783 10 0 60589 31500.00000 0 21986071.284 8418185.515 -9775578.982 10 0 60589 32400.00000 0 20633368.958 8108721.502 -12582698.940 10 0 60589 33300.00000 0 18931743.894 7876859.904 -15144920.119 10 0 60589 34200.00000 0 16920347.015 7769426.817 -17412398.637 10 0 60589 35100.00000 0 14648688.409 7825537.217 -19341048.149 10 0 60589 36000.00000 0 12174743.452 8074763.910 -20893398.843 10 0 60589 36900.00000 0 9562717.398 8535723.687 -22039324.772 10 0 60589 37800.00000 0 6880562.047 9215140.774 -22756625.705 10 0 60589 38700.00000 0 4197348.235 10107427.245 -23031452.684 10 0 60589 39600.00000 0 1580603.636 11194798.137 -22858569.678 10 0 60589 40500.00000 0 -906273.649 12447916.311 -22241446.991 10 0 60589 41400.00000 0 -3206418.749 13827039.904 -21192185.327 10 0 60589 42300.00000 0 -5271621.894 15283624.037 -19731272.614 10 0 60589 43200.00000 0 -7064081.551 16762309.530 -17887178.813 10 0 60589 44100.00000 0 -8557717.399 18203215.163 -15695796.941 10 0 60589 45000.00000 0 -9738990.230 19544437.405 -13199741.378 10 0 60589 45900.00000 0 -10607196.458 20724652.873 -10447517.209 10 0 60589 46800.00000 0 -11174226.878 21685714.516 -7492576.745 10 0 60589 47700.00000 0 -11463801.631 22375132.759 -4392281.556 10 0 60589 48600.00000 0 -11510215.152 22748337.692 -1206790.133 10 0 60589 49500.00000 0 -11356645.282 22770627.520 2002107.293 10 0 60589 50400.00000 0 -11053098.844 22418721.637 5172184.175 10 0 60589 51300.00000 0 -10654080.992 21681853.166 8241980.270 10 0 60589 52200.00000 0 -10216087.126 20562355.123 11151988.307 10 0 60589 53100.00000 0 -9795023.294 19075715.363 13845801.932 10 0 60589 54000.00000 0 -9443663.881 17250097.667 16271203.114 10 0 60589 54900.00000 0 -9209253.603 15125348.326 18381168.440 10 0 60589 55800.00000 0 -9131354.668 12751528.953 20134775.364 10 0 60589 56700.00000 0 -9240029.625 10187035.674 21497991.502 10 0 60589 57600.00000 0 -9554436.419 7496381.850 22444332.262 10 0 60589 58500.00000 0 -10081894.984 4747735.304 22955374.511 10 0 60589 59400.00000 0 -10817465.197 2010311.069 23021116.614 10 0 60589 60300.00000 0 -11744054.776 -648273.398 22640177.878 10 0 60589 61200.00000 0 -12833053.763 -3164571.890 21819833.229 10 0 60589 62100.00000 0 -14045470.290 -5481706.181 20575881.901 10 0 60589 63000.00000 0 -15333521.416 -7551487.124 18932351.816 10 0 60589 63900.00000 0 -16642613.582 -9336172.458 16921044.384 10 0 60589 64800.00000 0 -17913630.710 -10809788.597 14580927.474 10 0 60589 65700.00000 0 -19085434.612 -11958961.524 11957387.237 10 0 60589 66600.00000 0 -20097472.982 -12783222.266 9101352.450 10 0 60589 67500.00000 0 -20892385.152 -13294774.367 6068307.765 10 0 60589 68400.00000 0 -21418495.377 -13517733.405 2917214.725 10 0 60589 69300.00000 0 -21632087.634 -13486871.017 -290638.327 10 0 60589 70200.00000 0 -21499364.844 -13245916.982 -3492834.616 10 0 60589 71100.00000 0 -20998008.502 -12845491.890 -6627051.524 10 0 60589 72000.00000 0 -20118271.571 -12340758.813 -9632282.541 10 0 60589 72900.00000 0 -18863557.277 -11788894.451 -12450033.748 10 0 60589 73800.00000 0 -17250458.334 -11246487.978 -15025470.480 10 0 60589 74700.00000 0 -15308254.133 -10766978.830 -17308490.938 10 0 60589 75600.00000 0 -13077886.481 -10398242.862 -19254705.196 10 0 60589 76500.00000 0 -10610456.538 -10180429.734 -20826300.239 10 0 60589 77400.00000 0 -7965305.830 -10144143.472 -21992774.140 10 0 60589 78300.00000 0 -5207761.535 -10309043.280 -22731525.385 10 0 60589 79200.00000 0 -2406640.142 -10682923.621 -23028286.397 10 0 60589 80100.00000 0 368386.558 -11261312.169 -22877393.473 10 0 60589 81000.00000 0 3049453.775 -12027602.181 -22281888.637 10 0 60589 81900.00000 0 5573084.114 -12953713.371 -21253452.092 10 0 60589 82800.00000 0 7882579.543 -14001253.017 -19812167.260 10 0 60589 83700.00000 0 9930126.546 -15123128.183 -17986123.431 10 0 60589 84600.00000 0 11678528.267 -16265540.989 -15810864.109 10 0 60589 85500.00000 0 13102493.057 -17370282.890 -13328692.011 10 0 60590 0.00000 0 14189427.390 -18377231.380 -10587844.591 10 0 60590 900.00000 0 14939702.380 -19226944.674 -7641554.615 10 0 60590 1800.00000 0 15366383.192 -19863244.027 -4547017.789 10 0 60590 2700.00000 0 15494436.344 -20235676.976 -1364282.553 10 0 60590 3600.00000 0 15359448.149 -20301756.667 1844912.845 10 0 60590 4500.00000 0 15005910.080 -20028883.691 5018334.865 10 0 60590 5400.00000 0 14485144.037 -19395869.559 8094457.505 10 0 60590 6300.00000 0 13852955.491 -18393997.662 11013650.299 10 0 60590 7200.00000 0 13167113.702 -17027576.886 13719328.690 10 0 60590 8100.00000 0 12484765.177 -15313964.176 16159044.893 10 0 60590 9000.00000 0 11859889.153 -13283054.397 18285498.618 10 0 60590 9900.00000 0 11340901.898 -10976257.857 20057448.629 10 0 60590 10800.00000 0 10968510.341 -8445007.062 21440508.128 10 0 60590 11700.00000 0 10773904.965 -5748853.539 22407809.128 10 0 60590 12600.00000 0 10777367.833 -2953232.549 22940523.418 10 0 60590 13500.00000 0 10987354.323 -126987.035 23028230.311 10 0 60590 14400.00000 0 11400087.520 2660247.805 22669124.061 10 0 60590 15300.00000 0 11999682.976 5340692.130 21870056.672 10 0 60590 16200.00000 0 12758799.502 7850992.540 20646414.685 10 0 60590 17100.00000 0 13639789.749 10134610.843 19021831.529 10 0 60590 18000.00000 0 14596303.340 12143931.886 17027739.969 10 0 60590 18900.00000 0 15575276.193 13842003.228 14702772.287 10 0 60590 19800.00000 0 16519223.161 15203834.397 12092018.710 10 0 60590 20700.00000 0 17368737.906 16217201.569 9246157.654 10 0 60590 21600.00000 0 18065094.755 16882924.108 6220473.994 10 0 60590 22500.00000 0 18552842.397 17214601.466 3073784.165 10 0 60590 23400.00000 0 18782279.215 17237821.764 -132710.916 10 0 60590 24300.00000 0 18711704.576 16988875.782 -3336622.342 10 0 60590 25200.00000 0 18309349.661 16513031.264 -6475595.108 10 0 60590 26100.00000 0 17554904.821 15862441.204 -9488530.591 10 0 60590 27000.00000 0 16440577.537 15093775.540 -12316784.781 10 0 60590 27900.00000 0 14971635.022 14265677.442 -14905317.898 10 0 60590 28800.00000 0 13166407.486 13436152.857 -17203772.073 10 0 60590 29700.00000 0 11055751.039 12660004.607 -19167455.488 10 0 60590 30600.00000 0 8681992.143 11986420.241 -20758213.465 10 0 60590 31500.00000 0 6097397.476 11456815.989 -21945169.475 10 0 60590 32400.00000 0 3362232.953 11103027.991 -22705321.945 10 0 60590 33300.00000 0 542492.799 10945926.934 -23023985.708 10 0 60590 34200.00000 0 -2292606.785 10994514.077 -22895070.188 10 0 60590 35100.00000 0 -5073265.285 11245536.155 -22321189.610 10 0 60590 36000.00000 0 -7731757.538 11683634.613 -21313603.813 10 0 60590 36900.00000 0 -10205005.438 12282022.142 -19891991.436 10 0 60590 37800.00000 0 -12436955.641 13003657.329 -18084060.408 10 0 60590 38700.00000 0 -14380665.490 13802867.342 -15925003.638 10 0 60590 39600.00000 0 -16000011.668 14627349.877 -13456810.751 10 0 60590 40500.00000 0 -17270951.884 15420469.709 -10727449.343 10 0 60590 41400.00000 0 -18182288.593 16123752.960 -7789931.682 10 0 60590 42300.00000 0 -18735904.478 16679473.885 -4701285.026 10 0 60590 43200.00000 0 -18946461.468 17033225.195 -1521445.510 10 0 60590 44100.00000 0 -18840577.425 17136363.644 1687902.975 10 0 60590 45000.00000 0 -18455516.329 16948227.861 4864522.377 10 0 60590 45900.00000 0 -17837448.066 16438034.998 7946823.518 10 0 60590 46800.00000 0 -17039351.710 15586376.228 10875055.407 10 0 60590 47700.00000 0 -16118650.947 14386247.910 13592458.007 10 0 60590 48600.00000 0 -15134681.234 12843574.609 16046356.510 10 0 60590 49500.00000 0 -14146095.073 10977201.306 18189176.423 10 0 60590 50400.00000 0 -13208314.179 8818354.133 19979360.378 10 0 60590 51300.00000 0 -12371135.132 6409590.939 21382169.507 10 0 60590 52200.00000 0 -11676588.570 3803284.023 22370354.514 10 0 60590 53100.00000 0 -11157141.381 1059696.653 22924683.857 10 0 60590 54000.00000 0 -10834317.059 -1755268.291 23034319.145 10 0 60590 54900.00000 0 -10717792.011 -4572555.661 22697030.500 10 0 60590 55800.00000 0 -10805005.981 -7322579.614 21919247.441 10 0 60590 56700.00000 0 -11081303.325 -9937871.954 20715943.776 10 0 60590 57600.00000 0 -11520599.886 -12355648.344 19110357.885 10 0 60590 58500.00000 0 -12086548.199 -14520186.576 17133552.842 10 0 60590 59400.00000 0 -12734152.821 -16384918.431 14823823.822 10 0 60590 60300.00000 0 -13411768.453 -17914148.269 12225963.185 10 0 60590 61200.00000 0 -14063397.105 -19084326.609 9390396.665 10 0 60590 62100.00000 0 -14631187.536 -19884825.389 6372206.736 10 0 60590 63000.00000 0 -15058031.164 -20318182.354 3230061.848 10 0 60590 63900.00000 0 -15290144.131 -20399804.272 25072.415 10 0 60590 64800.00000 0 -15279525.328 -20157141.666 -3180403.751 10 0 60590 65700.00000 0 -14986185.156 -19628370.164 -6323982.597 10 0 60590 66600.00000 0 -14380049.317 -18860634.720 -9344476.798 10 0 60590 67500.00000 0 -13442455.639 -17907931.607 -12183095.684 10 0 60590 68400.00000 0 -12167179.236 -16828718.553 -14784597.712 10 0 60590 69300.00000 0 -10560941.444 -15683354.968 -17098372.141 10 0 60590 70200.00000 0 -8643379.954 -14531481.245 -19079428.168 10 0 60590 71100.00000 0 -6446480.500 -13429448.491 -20689271.951 10 0 60590 72000.00000 0 -4013493.291 -12427907.599 -21896654.355 10 0 60590 72900.00000 0 -1397379.070 -11569659.444 -22678175.130 10 0 60590 73800.00000 0 1341150.575 -10887856.553 -23018732.281 10 0 60590 74700.00000 0 4135917.169 -10404631.477 -22911808.479 10 0 60590 75600.00000 0 6917788.658 -10130208.749 -22359589.683 10 0 60590 76500.00000 0 9617317.882 -10062536.816 -21372914.363 10 0 60590 77400.00000 0 12167396.898 -10187454.335 -19971054.915 10 0 60590 78300.00000 0 14505817.458 -10479382.708 -18181336.029 10 0 60590 79200.00000 0 16577632.028 -10902514.698 -16038597.776 10 0 60590 80100.00000 0 18337218.088 -11412448.162 -13584514.103 10 0 60590 81000.00000 0 19749960.977 -11958195.371 -10866780.098 10 0 60590 81900.00000 0 20793486.446 -12484482.669 -7938183.859 10 0 60590 82800.00000 0 21458392.884 -12934243.181 -4855581.028 10 0 60590 83700.00000 0 21748454.025 -13251197.167 -1678791.893 10 0 60590 84600.00000 0 21680285.059 -13382411.092 1530557.588 10 0 60590 85500.00000 0 21282487.371 -13280727.398 4710228.339 10 0 60591 0.00000 0 20594308.913 -12906962.472 7798571.024 10 0 60591 900.00000 0 19663876.842 -12231779.828 10735717.658 10 0 60591 1800.00000 0 18546078.123 -11237159.897 13464735.027 10 0 60591 2700.00000 0 17300176.101 -9917403.507 15932723.434 10 0 60591 3600.00000 0 15987263.885 -8279626.654 18091835.857 10 0 60591 4500.00000 0 14667660.813 -6343724.707 19900199.980 10 0 60591 5400.00000 0 13398360.757 -4141806.361 21322725.609 10 0 60591 6300.00000 0 12230638.611 -1717119.491 22331782.435 10 0 60591 7200.00000 0 11207914.682 877487.931 22907735.474 10 0 60591 8100.00000 0 10363965.845 3581509.529 23039328.140 10 0 60591 9000.00000 0 9721557.995 6329045.898 22723905.574 10 0 60591 9900.00000 0 9291556.867 9051301.167 21967473.653 10 0 60591 10800.00000 0 9072554.477 11679208.598 20784592.001 10 0 60591 11700.00000 0 9051027.078 14146077.393 19198102.279 10 0 60591 12600.00000 0 9202018.372 16390151.588 17238696.001 10 0 60591 13500.00000 0 9490319.724 18356975.176 14944329.213 10 0 60591 14400.00000 0 9872098.152 20001465.167 12359494.261 10 0 60591 15300.00000 0 10296903.806 21289606.040 9534361.939 10 0 60591 16200.00000 0 10709972.330 22199694.551 6523809.976 10 0 60591 17100.00000 0 11054724.624 22723082.465 3386356.419 10 0 60591 18000.00000 0 11275357.761 22864385.794 183018.728 10 0 60591 18900.00000 0 11319416.529 22641151.589 -3023878.819 10 0 60591 19800.00000 0 11140235.559 22082996.404 -6171925.504 10 0 60591 20700.00000 0 10699147.268 21230253.033 -9199847.558 10 0 60591 21600.00000 0 9967360.664 20132183.105 -12048709.734 10 0 60591 22500.00000 0 8927430.048 18844831.685 -14663070.621 10 0 60591 23400.00000 0 7574250.122 17428615.180 -16992068.277 10 0 60591 24300.00000 0 5915534.278 15945745.151 -18990414.386 10 0 60591 25200.00000 0 3971754.787 14457597.274 -20619277.217 10 0 60591 26100.00000 0 1775546.581 13022136.822 -21847036.109 10 0 60591 27000.00000 0 -629401.061 11691509.207 -22649893.046 10 0 60591 27900.00000 0 -3189919.040 10509896.735 -23012329.882 10 0 60591 28800.00000 0 -5845333.769 9511731.170 -22927402.957 10 0 60591 29700.00000 0 -8529761.222 8720336.315 -22396870.073 10 0 60591 30600.00000 0 -11174624.504 8147056.472 -21431148.065 10 0 60591 31500.00000 0 -13711290.472 7790906.078 -20049102.421 10 0 60591 32400.00000 0 -16073716.243 7638753.801 -18277673.529 10 0 60591 33300.00000 0 -18200996.071 7666031.935 -16151347.201 10 0 60591 34200.00000 0 -20039703.361 7837939.949 -13711479.983 10 0 60591 35100.00000 0 -21545931.170 8111090.352 -11005492.519 10 0 60591 36000.00000 0 -22686947.184 8435526.606 -8085946.646 10 0 60591 36900.00000 0 -23442395.180 8757027.252 -5009524.216 10 0 60591 37800.00000 0 -23804993.986 9019598.556 -1835927.432 10 0 60591 38700.00000 0 -23780705.825 9168050.100 1373277.963 10 0 60591 39600.00000 0 -23388368.110 9150544.425 4555854.211 10 0 60591 40500.00000 0 -22658805.046 8921012.945 7650094.754 10 0 60591 41400.00000 0 -21633457.075 8441336.084 10596015.962 10 0 60591 42300.00000 0 -20362586.136 7683195.531 13336514.488 10 0 60591 43200.00000 0 -18903132.263 6629520.238 15818468.228 10 0 60591 44100.00000 0 -17316311.322 5275464.784 17993760.023 10 0 60591 45000.00000 0 -15665054.269 3628878.229 19820204.857 10 0 60591 45900.00000 0 -14011394.622 1710242.648 21262363.215 10 0 60591 46800.00000 0 -12413912.821 -447917.435 22292225.482 10 0 60591 47700.00000 0 -10925343.584 -2802131.696 22889754.583 10 0 60591 48600.00000 0 -9590445.572 -5299542.789 23043276.697 10 0 60591 49500.00000 0 -8444221.688 -7879864.228 22749712.543 10 0 60591 50400.00000 0 -7510563.939 -10477657.703 22014644.497 10 0 60591 51300.00000 0 -6801379.162 -13024836.795 20852217.746 10 0 60591 52200.00000 0 -6316232.063 -15453294.431 19284876.567 10 0 60591 53100.00000 0 -6042520.546 -17697545.785 17342939.875 10 0 60591 54000.00000 0 -5956176.119 -19697277.337 15064023.182 10 0 60591 54900.00000 0 -6022860.084 -21399696.138 12492317.094 10 0 60591 55800.00000 0 -6199605.300 -22761581.171 9677735.448 10 0 60591 56700.00000 0 -6436834.245 -23750950.749 6674948.980 10 0 60591 57600.00000 0 -6680667.927 -24348275.632 3542322.889 10 0 60591 58500.00000 0 -6875427.469 -24547186.477 340779.079 10 0 60591 59400.00000 0 -6966221.691 -24354645.424 -2867394.453 10 0 60591 60300.00000 0 -6901509.998 -23790574.344 -6019763.184 10 0 60591 61200.00000 0 -6635530.685 -22886955.334 -9054969.876 10 0 60591 62100.00000 0 -6130490.374 -21686441.601 -11913937.749 10 0 60591 63000.00000 0 -5358420.381 -20240537.691 -14541028.584 10 0 60591 63900.00000 0 -4302620.064 -18607426.385 -16885132.235 10 0 60591 64800.00000 0 -2958624.860 -16849534.494 -18900665.691 10 0 60591 65700.00000 0 -1334656.988 -15030940.647 -20548461.873 10 0 60591 66600.00000 0 548461.084 -13214734.620 -21796530.739 10 0 60591 67500.00000 0 2657927.603 -11460439.420 -22620678.170 10 0 60591 68400.00000 0 4950091.474 -9821604.224 -23004971.008 10 0 60591 69300.00000 0 7372044.368 -8343668.767 -22942039.848 10 0 60591 70200.00000 0 9863608.867 -7062187.842 -22433214.389 10 0 60591 71100.00000 0 12359640.012 -6001489.194 -21488489.389 10 0 60591 72000.00000 0 14792544.649 -5173819.649 -20126322.510 10 0 60591 72900.00000 0 17094913.965 -4579013.669 -18373268.488 10 0 60591 73800.00000 0 19202160.051 -4204696.548 -16263457.097 10 0 60591 74700.00000 0 21055047.142 -4027012.066 -13837925.289 10 0 60591 75600.00000 0 22602012.697 -4011842.483 -11143816.656 10 0 60591 76500.00000 0 23801182.252 -4116468.142 -8233463.790 10 0 60591 77400.00000 0 24621994.769 -4291595.672 -5163371.438 10 0 60591 78300.00000 0 25046371.434 -4483668.384 -1993120.175 10 0 60591 79200.00000 0 25069379.955 -4637360.754 1215788.148 10 0 60591 80100.00000 0 24699367.419 -4698151.249 4401120.751 10 0 60591 81000.00000 0 23957556.904 -4614864.648 7501117.107 10 0 60591 81900.00000 0 22877125.416 -4342076.312 10455681.756 10 0 60591 82800.00000 0 21501802.168 -3842276.863 13207543.853 10 0 60591 83700.00000 0 19884046.157 -3087705.724 15703361.378 10 0 60591 84600.00000 0 18082879.229 -2061775.963 17894749.080 10 0 60591 85500.00000 0 16161465.027 -760029.865 19739210.827 99